THOR ABLESTAR DEB, 648

Orbit data source: Space-Track

THOR ABLESTAR DEB, 648 is space debris in LEO originally from a launch on Thu, 29 Jun 1961 UTC launched from the Air Force Eastern Test Range (AFETR). Debris objects in space refer to the collection of defunct objects orbiting the Earth. Examples of debris include non-operational satellites, rocket bodies, and fragments generated from explosions, collisions, or faulty payload assembly.

Loading next visibility...
Identifier
648, 1961-015GZ
Orbit
LEO
Country
Flag of USUS
Related business
Manufacturer
Unknown
Mission
Spacecraft
Bus & Motor
Unknown
Mass
Unknown
Launch date (UTC)
1961-06-29 (64 years ago)
Launch vehicle
Unknown
Launch site
Air Force Eastern Test Range (AFETR)
Object type
Payload
Rocket body
Debris
Shape & HBR
Unknown shape, 0.1 m
Radar Cross Section
Small (<0.1 m²)

Expand to show TLE details & history
Last TLE update: 8 hours ago

TLE from 8 hours ago
0 THOR ABLESTAR DEB
1 00648U 61015GZ  25293.27956022  .00001426  00000-0  17850-2 0  9991
2 00648  65.8730 247.6050 0199803 338.5846 169.9108 13.59335925166361
Epoch: 2025-10-20T06:42Z
TLE epoch observation values (Epoch: 2025-10-20T06:42:34.003Z)
Latitude
28.19346°
Longitude
-75.84113°
Altitude
1,186.642 km
Speed
7.191 km/s
True Right ascension
03h 35m 08s
True Declination
28° 03' 31"
Sunlit
Object was in full shadow at epoch
Visualization orbit readout
Latitude
Unknown
Longitude
Unknown
Altitude
Unknown
Speed
Unknown
Apparent Right ascension
Unknown
Apparent Declination
Unknown
Sunlit
N/A
Visualization observer readout
Local Sidereal Time
10:05:23
Azimuth
Unknown
Elevation
Unknown
Doppler factor
Unknown
Orbital elements
Apogee altitude
1,184.779 km
Perigee altitude
888.48 km
Semi-major axis
7,414.766 km
Eccentricity
0.01998
Inclination
65.873°
RAAN
247.605°
Arg. of periapsis
338.5846°
True anomaly
170.30225°
Mean anomaly
169.9108°
Eccentric anomaly
170.10748°
Mean motion
3.39936 °/min
Orbital period
105.9 mins
BSTAR
0.001785

Documentation

Showing up to 5 results
|